| time (UTC) | temp F | wind direction | speed MPH | gust MPH | rain 1hr in | rain 24hr in | rain mn in | humidity % | barometer mb |
| 20260509075003 | 49 | 346 | 7.0 | 13.0 | 0.00 | 0.00 | 0.00 | 86 | 1020.1 |
| 20260509074503 | 49 | 355 | 4.0 | 13.0 | 0.00 | 0.00 | 0.00 | 87 | 1020.1 |
| 20260509074002 | 49 | 355 | 7.0 | 14.0 | 0.00 | 0.00 | 0.00 | 86 | 1020.1 |
| 20260509073503 | 49 | 345 | 9.0 | 17.0 | 0.00 | 0.00 | 0.00 | 86 | 1020.0 |
| 20260509072501 | 50 | 360 | 6.0 | 15.0 | 0.00 | 0.00 | 0.00 | 85 | 1020.0 |
| 20260509072100 | 50 | 317 | 1.0 | 15.0 | 0.00 | 0.00 | 0.00 | 86 | 1019.9 |
| 20260509071558 | 50 | 360 | 5.0 | 17.0 | 0.00 | 0.00 | 0.00 | 86 | 1019.9 |
| 20260509071057 | 50 | 346 | 8.0 | 16.0 | 0.00 | 0.00 | 0.00 | 86 | 1019.9 |
| 20260509070556 | 50 | 11 | 8.0 | 16.0 | 0.00 | 0.00 | 0.00 | 86 | 1019.8 |
| 20260509070057 | 50 | 346 | 6.0 | 15.0 | 0.00 | 0.00 | 0.00 | 86 | 1019.7 |
| 20260509065555 | 50 | 9 | 7.0 | 15.0 | 0.00 | 0.00 | 0.00 | 87 | 1019.7 |
| 20260509065054 | 49 | 22 | 8.0 | 15.0 | 0.00 | 0.00 | 0.00 | 88 | 1019.8 |
| 20260509064553 | 49 | 355 | 3.0 | 11.0 | 0.00 | 0.00 | 0.00 | 88 | 1019.8 |
| 20260509064051 | 49 | 9 | 3.0 | 12.0 | 0.00 | 0.00 | 0.00 | 88 | 1019.8 |
| 20260509063552 | 49 | 360 | 8.0 | 11.0 | 0.00 | 0.00 | 0.00 | 87 | 1019.8 |
| 20260509063102 | 49 | 333 | 4.0 | 13.0 | 0.00 | 0.00 | 0.00 | 88 | 1019.8 |
| 20260509062551 | 48 | 338 | 6.0 | 13.0 | 0.00 | 0.00 | 0.00 | 87 | 1019.8 |
| 20260509062051 | 49 | 340 | 7.0 | 13.0 | 0.00 | 0.00 | 0.00 | 87 | 1019.7 |
| 20260509061551 | 49 | 327 | 4.0 | 11.0 | 0.00 | 0.00 | 0.00 | 87 | 1019.7 |
| 20260509061050 | 49 | 355 | 2.0 | 11.0 | 0.00 | 0.00 | 0.00 | 87 | 1019.6 |
| 20260509060550 | 49 | 355 | 3.0 | 9.0 | 0.00 | 0.00 | 0.00 | 88 | 1019.7 |
| 20260509060058 | 48 | 355 | 1.0 | 10.0 | 0.00 | 0.00 | 0.00 | 87 | 1019.7 |
| 20260509055553 | 48 | 355 | 3.0 | 13.0 | 0.00 | 0.00 | 0.00 | 87 | 1019.6 |
| 20260509055049 | 48 | 337 | 5.0 | 17.0 | 0.00 | 0.00 | 0.00 | 87 | 1019.6 |
| 20260509054549 | 48 | 297 | 9.0 | 17.0 | 0.00 | 0.00 | 0.00 | 87 | 1019.6 |
| 20260509053547 | 48 | 11 | 6.0 | 16.0 | 0.00 | 0.00 | 0.00 | 88 | 1019.5 |
| 20260509052645 | 48 | 323 | 7.0 | 13.0 | 0.00 | 0.00 | 0.00 | 88 | 1019.5 |
| 20260509052042 | 48 | 355 | 6.0 | 13.0 | 0.00 | 0.00 | 0.00 | 89 | 1019.5 |
| 20260509051543 | 48 | 337 | 5.0 | 13.0 | 0.00 | 0.00 | 0.00 | 89 | 1019.5 |
| 20260509051042 | 48 | 344 | 4.0 | 13.0 | 0.00 | 0.00 | 0.00 | 90 | 1019.5 |
| 20260509050544 | 48 | 17 | 4.0 | 15.0 | 0.00 | 0.00 | 0.00 | 90 | 1019.5 |
| 20260509050041 | 47 | 5 | 5.0 | 15.0 | 0.00 | 0.00 | 0.00 | 90 | 1019.5 |
| 20260509045539 | 48 | 333 | 4.0 | 12.0 | 0.00 | 0.00 | 0.00 | 90 | 1019.5 |
| 20260509045038 | 47 | 18 | 3.0 | 12.0 | 0.00 | 0.00 | 0.00 | 91 | 1019.5 |
| 20260509044537 | 47 | 5 | 5.0 | 13.0 | 0.00 | 0.00 | 0.00 | 91 | 1019.4 |
| 20260509044037 | 47 | 348 | 2.0 | 12.0 | 0.00 | 0.00 | 0.00 | 91 | 1019.3 |
| 20260509043535 | 47 | 355 | 3.0 | 12.0 | 0.00 | 0.00 | 0.00 | 92 | 1019.3 |
| 20260509043043 | 47 | 5 | 4.0 | 12.0 | 0.00 | 0.00 | 0.00 | 92 | 1019.3 |
| 20260509042533 | 47 | 360 | 7.0 | 13.0 | 0.00 | 0.00 | 0.00 | 91 | 1019.3 |
| 20260509042036 | 47 | 344 | 8.0 | 13.0 | 0.00 | 0.00 | 0.00 | 92 | 1019.3 |
| 20260509041540 | 47 | 13 | 3.0 | 10.0 | 0.00 | 0.00 | 0.00 | 92 | 1019.3 |
| 20260509041033 | 47 | 360 | 2.0 | 13.0 | 0.00 | 0.00 | 0.00 | 91 | 1019.3 |
| 20260509040528 | 47 | 349 | 5.0 | 11.0 | 0.00 | 0.00 | 0.00 | 91 | 1019.2 |
| 20260509040029 | 47 | 355 | 0.0 | 0.0 | 0.00 | 0.00 | 0.00 | 92 | 1019.2 |
| 20260509035527 | 47 | 355 | 0.0 | 1.0 | 0.00 | 0.00 | 0.00 | 91 | 1019.3 |
| 20260509035026 | 47 | 5 | 0.0 | 11.0 | 0.00 | 0.00 | 0.00 | 91 | 1019.3 |
| 20260509034526 | 47 | 339 | 6.0 | 11.0 | 0.00 | 0.00 | 0.00 | 91 | 1019.2 |
| 20260509034025 | 47 | 310 | 5.0 | 10.0 | 0.00 | 0.00 | 0.00 | 91 | 1019.2 |
| 20260509033524 | 47 | 336 | 3.0 | 10.0 | 0.00 | 0.00 | 0.00 | 91 | 1019.2 |
| 20260509033023 | 47 | 355 | 0.0 | 0.0 | 0.00 | 0.00 | 0.00 | 91 | 1019.2 |
| 20260509032522 | 47 | 13 | 0.0 | 0.0 | 0.00 | 0.00 | 0.00 | 91 | 1019.2 |
| 20260509031520 | 47 | 340 | 0.0 | 0.0 | 0.00 | 0.00 | 0.00 | 91 | 1019.2 |
| 20260509031020 | 47 | 5 | 0.0 | 0.0 | 0.00 | 0.00 | 0.00 | 91 | 1019.2 |
| 20260509030520 | 47 | 9 | 0.0 | 0.0 | 0.00 | 0.00 | 0.00 | 91 | 1019.2 |
| 20260509030018 | 47 | 5 | 0.0 | 0.0 | 0.00 | 0.00 | 0.00 | 91 | 1019.2 |
| 20260509025519 | 47 | 355 | 0.0 | 0.0 | 0.00 | 0.00 | 0.00 | 91 | 1019.2 |
| 20260509025018 | 47 | 5 | 0.0 | 0.0 | 0.00 | 0.00 | 0.00 | 91 | 1019.2 |
| 20260509024519 | 47 | 5 | 0.0 | 0.0 | 0.00 | 0.00 | 0.00 | 91 | 1019.3 |
| 20260509024019 | 48 | 5 | 0.0 | 0.0 | 0.00 | 0.00 | 0.00 | 91 | 1019.2 |
| 20260509023519 | 48 | 14 | 0.0 | 0.0 | 0.00 | 0.00 | 0.00 | 91 | 1019.3 |
| 20260509023018 | 48 | 30 | 0.0 | 0.0 | 0.00 | 0.00 | 0.00 | 91 | 1019.2 |
| 20260509022518 | 48 | 5 | 0.0 | 0.0 | 0.00 | 0.00 | 0.00 | 91 | 1019.2 |
| 20260509022017 | 48 | 5 | 0.0 | 0.0 | 0.00 | 0.00 | 0.00 | 91 | 1019.3 |
| 20260509021517 | 48 | 5 | 0.0 | 0.0 | 0.00 | 0.00 | 0.00 | 91 | 1019.3 |
| 20260509021017 | 48 | 5 | 0.0 | 0.0 | 0.00 | 0.00 | 0.00 | 91 | 1019.3 |
| 20260509020516 | 48 | 5 | 0.0 | 0.0 | 0.00 | 0.00 | 0.00 | 91 | 1019.4 |
| 20260509020018 | 48 | 5 | 0.0 | 0.0 | 0.00 | 0.00 | 0.00 | 90 | 1019.3 |
| 20260509015517 | 48 | 5 | 0.0 | 0.0 | 0.00 | 0.00 | 0.00 | 91 | 1019.3 |
| 20260509015016 | 48 | 12 | 0.0 | 0.0 | 0.00 | 0.00 | 0.00 | 91 | 1019.3 |
| 20260509014514 | 48 | 5 | 0.0 | 0.0 | 0.00 | 0.00 | 0.00 | 91 | 1019.3 |
| 20260509014018 | 48 | 5 | 0.0 | 0.0 | 0.00 | 0.00 | 0.00 | 91 | 1019.2 |
| 20260509013515 | 48 | 5 | 0.0 | 0.0 | 0.00 | 0.00 | 0.00 | 91 | 1019.2 |
| 20260509013014 | 48 | 5 | 0.0 | 0.0 | 0.00 | 0.00 | 0.00 | 91 | 1019.2 |
| 20260509012514 | 48 | 5 | 0.0 | 0.0 | 0.00 | 0.00 | 0.00 | 91 | 1019.2 |
| 20260509012013 | 48 | 5 | 0.0 | 0.0 | 0.00 | 0.00 | 0.00 | 90 | 1019.2 |
| 20260509011012 | 49 | 9 | 0.0 | 0.0 | 0.00 | 0.00 | 0.00 | 91 | 1019.2 |
| 20260509010512 | 49 | 10 | 0.0 | 0.0 | 0.00 | 0.00 | 0.00 | 91 | 1019.2 |
| 20260509010033 | 49 | 30 | 0.0 | 0.0 | 0.00 | 0.00 | 0.00 | 90 | 1019.2 |
| 20260509005512 | 49 | 355 | 0.0 | 0.0 | 0.00 | 0.00 | 0.00 | 91 | 1019.2 |
| 20260509005013 | 49 | 355 | 0.0 | 0.0 | 0.00 | 0.00 | 0.00 | 90 | 1019.2 |
| 20260509004522 | 49 | 355 | 0.0 | 0.0 | 0.00 | 0.00 | 0.00 | 90 | 1019.2 |
| 20260509004011 | 49 | 355 | 0.0 | 0.0 | 0.00 | 0.00 | 0.00 | 90 | 1019.2 |
| 20260509003510 | 49 | 355 | 0.0 | 0.0 | 0.00 | 0.00 | 0.00 | 90 | 1019.2 |
| 20260509003010 | 49 | 355 | 0.0 | 0.0 | 0.00 | 0.00 | 0.00 | 90 | 1019.2 |
| 20260509002510 | 49 | 355 | 0.0 | 0.0 | 0.00 | 0.00 | 0.00 | 90 | 1019.2 |
| 20260509002009 | 49 | 355 | 0.0 | 0.0 | 0.00 | 0.00 | 0.00 | 90 | 1019.3 |
| 20260509001508 | 49 | 355 | 0.0 | 0.0 | 0.00 | 0.00 | 0.00 | 90 | 1019.3 |
| 20260509001010 | 49 | 355 | 0.0 | 0.0 | 0.00 | 0.00 | 0.00 | 90 | 1019.3 |
| 20260509000508 | 49 | 322 | 0.0 | 0.0 | 0.00 | 0.00 | 0.00 | 90 | 1019.3 |
| 20260509000009 | 49 | 322 | 0.0 | 0.0 | 0.00 | 0.00 | 0.00 | 90 | 1019.3 |
| 20260508235508 | 49 | 322 | 0.0 | 0.0 | 0.00 | 0.00 | 0.00 | 90 | 1019.3 |
| 20260508235008 | 49 | 289 | 0.0 | 0.0 | 0.00 | 0.00 | 0.00 | 90 | 1019.3 |
| 20260508234519 | 49 | 313 | 0.0 | 0.0 | 0.00 | 0.00 | 0.00 | 90 | 1019.3 |
| 20260508234008 | 49 | 5 | 0.0 | 0.0 | 0.00 | 0.00 | 0.00 | 90 | 1019.3 |
| 20260508233507 | 49 | 5 | 0.0 | 0.0 | 0.00 | 0.00 | 0.00 | 90 | 1019.3 |
| 20260508233013 | 49 | 5 | 0.0 | 0.0 | 0.00 | 0.00 | 0.00 | 90 | 1019.3 |
| 20260508232506 | 49 | 5 | 0.0 | 0.0 | 0.00 | 0.00 | 0.00 | 90 | 1019.3 |
| 20260508232006 | 49 | 5 | 0.0 | 0.0 | 0.00 | 0.00 | 0.00 | 90 | 1019.2 |
| 20260508231505 | 49 | 5 | 0.0 | 0.0 | 0.00 | 0.00 | 0.00 | 90 | 1019.2 |
| 20260508231006 | 49 | 5 | 0.0 | 0.0 | 0.00 | 0.00 | 0.00 | 90 | 1019.3 |
| 20260508230505 | 49 | 5 | 0.0 | 0.0 | 0.00 | 0.00 | 0.00 | 90 | 1019.3 |
| 20260508230006 | 49 | 5 | 0.0 | 0.0 | 0.00 | 0.00 | 0.00 | 90 | 1019.3 |
| 20260508225506 | 49 | 5 | 0.0 | 0.0 | 0.00 | 0.00 | 0.00 | 90 | 1019.3 |
| 20260508225006 | 49 | 5 | 0.0 | 0.0 | 0.00 | 0.00 | 0.00 | 90 | 1019.3 |
| 20260508224506 | 49 | 5 | 0.0 | 0.0 | 0.00 | 0.00 | 0.00 | 90 | 1019.3 |
| 20260508224005 | 49 | 5 | 0.0 | 0.0 | 0.00 | 0.00 | 0.00 | 90 | 1019.3 |
| 20260508223506 | 49 | 5 | 0.0 | 0.0 | 0.00 | 0.00 | 0.00 | 90 | 1019.4 |
| 20260508223005 | 49 | 5 | 0.0 | 0.0 | 0.00 | 0.00 | 0.00 | 90 | 1019.3 |
| 20260508222507 | 49 | 5 | 0.0 | 0.0 | 0.00 | 0.00 | 0.00 | 90 | 1019.4 |
| 20260508222003 | 49 | 5 | 0.0 | 0.0 | 0.00 | 0.00 | 0.00 | 90 | 1019.3 |
| 20260508221503 | 49 | 5 | 0.0 | 0.0 | 0.00 | 0.00 | 0.00 | 90 | 1019.3 |
| 20260508221103 | 49 | 5 | 0.0 | 0.0 | 0.00 | 0.00 | 0.00 | 90 | 1019.2 |
| 20260508220504 | 49 | 5 | 0.0 | 0.0 | 0.00 | 0.00 | 0.00 | 90 | 1019.3 |
| 20260508220001 | 49 | 5 | 0.0 | 0.0 | 0.00 | 0.00 | 0.00 | 90 | 1019.3 |
| 20260508215502 | 49 | 5 | 0.0 | 0.0 | 0.00 | 0.00 | 0.00 | 90 | 1019.3 |
| 20260508215002 | 49 | 5 | 0.0 | 0.0 | 0.00 | 0.00 | 0.00 | 90 | 1019.3 |
| 20260508214502 | 49 | 5 | 0.0 | 0.0 | 0.00 | 0.00 | 0.00 | 90 | 1019.3 |
| 20260508214003 | 49 | 5 | 0.0 | 0.0 | 0.00 | 0.00 | 0.00 | 90 | 1019.3 |
| 20260508213502 | 49 | 5 | 0.0 | 0.0 | 0.00 | 0.00 | 0.00 | 89 | 1019.3 |
| 20260508213003 | 49 | 5 | 0.0 | 0.0 | 0.00 | 0.00 | 0.00 | 89 | 1019.4 |
| 20260508212501 | 49 | 5 | 0.0 | 0.0 | 0.00 | 0.00 | 0.00 | 89 | 1019.5 |
| 20260508212102 | 49 | 5 | 0.0 | 0.0 | 0.00 | 0.00 | 0.00 | 89 | 1019.4 |
| 20260508211600 | 49 | 5 | 0.0 | 0.0 | 0.00 | 0.00 | 0.00 | 89 | 1019.4 |
| 20260508211100 | 49 | 5 | 0.0 | 0.0 | 0.00 | 0.00 | 0.00 | 89 | 1019.5 |
| 20260508210602 | 49 | 5 | 0.0 | 0.0 | 0.00 | 0.00 | 0.00 | 89 | 1019.4 |
| 20260508210108 | 49 | 5 | 0.0 | 0.0 | 0.00 | 0.00 | 0.00 | 89 | 1019.5 |
| 20260508205600 | 49 | 5 | 0.0 | 0.0 | 0.00 | 0.00 | 0.00 | 88 | 1019.5 |
| 20260508205100 | 49 | 5 | 0.0 | 0.0 | 0.00 | 0.00 | 0.00 | 88 | 1019.5 |
| 20260508204600 | 49 | 5 | 0.0 | 0.0 | 0.00 | 0.00 | 0.00 | 88 | 1019.5 |
| 20260508204059 | 49 | 5 | 0.0 | 0.0 | 0.00 | 0.00 | 0.00 | 88 | 1019.5 |
| 20260508203600 | 49 | 5 | 0.0 | 0.0 | 0.00 | 0.00 | 0.00 | 88 | 1019.4 |
| 20260508203104 | 49 | 5 | 0.0 | 0.0 | 0.00 | 0.00 | 0.00 | 87 | 1019.4 |
| 20260508202559 | 50 | 5 | 0.0 | 0.0 | 0.00 | 0.00 | 0.00 | 87 | 1019.5 |
| 20260508202058 | 50 | 5 | 0.0 | 0.0 | 0.00 | 0.00 | 0.00 | 87 | 1019.5 |
| 20260508201558 | 50 | 5 | 0.0 | 0.0 | 0.00 | 0.00 | 0.00 | 87 | 1019.5 |
| 20260508201057 | 50 | 5 | 0.0 | 0.0 | 0.00 | 0.00 | 0.00 | 87 | 1019.4 |
| 20260508200657 | 50 | 5 | 0.0 | 0.0 | 0.00 | 0.00 | 0.00 | 87 | 1019.4 |
| 20260508195557 | 50 | 5 | 0.0 | 0.0 | 0.00 | 0.00 | 0.00 | 87 | 1019.4 |
| 20260508195057 | 50 | 5 | 0.0 | 0.0 | 0.00 | 0.00 | 0.00 | 87 | 1019.4 |
| 20260508192029 | 50 | 5 | 0.0 | 0.0 | 0.00 | 0.00 | 0.00 | 86 | 1019.3 |
| 20260508191654 | 50 | 5 | 0.0 | 0.0 | 0.00 | 0.00 | 0.00 | 86 | 1019.3 |
| 20260508191027 | 50 | 5 | 0.0 | 0.0 | 0.00 | 0.00 | 0.00 | 86 | 1019.3 |
| 20260508190527 | 50 | 5 | 0.0 | 0.0 | 0.00 | 0.00 | 0.00 | 85 | 1019.2 |
| 20260508181006 | 50 | 355 | 0.0 | 0.0 | 0.00 | 0.00 | 0.00 | 84 | 1018.7 |
| 20260508180508 | 50 | 355 | 0.0 | 1.0 | 0.00 | 0.00 | 0.00 | 84 | 1018.6 |
| 20260508180005 | 50 | 355 | 0.0 | 5.0 | 0.00 | 0.00 | 0.00 | 84 | 1018.6 |
| 20260508175504 | 50 | 355 | 0.0 | 6.0 | 0.00 | 0.00 | 0.00 | 84 | 1018.6 |
| 20260508175005 | 51 | 360 | 1.0 | 8.0 | 0.00 | 0.00 | 0.00 | 84 | 1018.6 |
| 20260508174504 | 51 | 360 | 0.0 | 13.0 | 0.00 | 0.00 | 0.00 | 84 | 1018.5 |
| 20260508174105 | 51 | 355 | 7.0 | 13.0 | 0.00 | 0.00 | 0.00 | 84 | 1018.5 |
| 20260508173504 | 51 | 360 | 6.0 | 11.0 | 0.00 | 0.00 | 0.00 | 84 | 1018.5 |
| 20260508173002 | 51 | 337 | 2.0 | 11.0 | 0.00 | 0.00 | 0.00 | 84 | 1018.5 |
| 20260508172503 | 51 | 17 | 0.0 | 3.0 | 0.00 | 0.00 | 0.00 | 84 | 1018.5 |
| 20260508172056 | 51 | 319 | 0.0 | 9.0 | 0.00 | 0.00 | 0.00 | 84 | 1018.5 |
| 20260508172030 | 51 | 319 | 0.0 | 9.0 | 0.00 | 0.00 | 0.00 | 84 | 1018.5 |
| 20260508171056 | 51 | 325 | 2.0 | 9.0 | 0.00 | 0.00 | 0.00 | 84 | 1018.5 |
| 20260508170608 | 51 | 297 | 3.0 | 11.0 | 0.00 | 0.00 | 0.00 | 84 | 1018.5 |
| 20260508165038 | 51 | 331 | 2.0 | 12.0 | 0.00 | 0.00 | 0.00 | 84 | 1018.5 |
| 20260508161530 | 51 | 350 | 11.0 | 16.0 | 0.00 | 0.00 | 0.00 | 83 | 1018.3 |
| 20260508161131 | 51 | 355 | 6.0 | 18.0 | 0.00 | 0.00 | 0.00 | 83 | 1018.3 |
| 20260508160032 | 51 | 347 | 8.0 | 17.0 | 0.00 | 0.00 | 0.00 | 82 | 1018.4 |
| 20260508155528 | 51 | 343 | 9.0 | 17.0 | 0.00 | 0.00 | 0.00 | 82 | 1018.3 |
| 20260508155029 | 51 | 339 | 6.0 | 17.0 | 0.00 | 0.00 | 0.00 | 82 | 1018.3 |
| 20260508154528 | 52 | 325 | 10.0 | 19.0 | 0.00 | 0.00 | 0.00 | 81 | 1018.3 |
| 20260508154027 | 52 | 5 | 10.0 | 22.0 | 0.00 | 0.00 | 0.00 | 80 | 1018.2 |
| 20260508153527 | 52 | 333 | 13.0 | 27.0 | 0.00 | 0.00 | 0.00 | 80 | 1018.2 |
| 20260508153027 | 53 | 332 | 15.0 | 27.0 | 0.00 | 0.00 | 0.00 | 79 | 1018.2 |
| 20260508152526 | 53 | 12 | 5.0 | 13.0 | 0.00 | 0.00 | 0.00 | 79 | 1018.2 |
| 20260508152026 | 53 | 296 | 3.0 | 16.0 | 0.00 | 0.00 | 0.00 | 79 | 1018.2 |
| 20260508151530 | 52 | 313 | 10.0 | 16.0 | 0.00 | 0.00 | 0.00 | 78 | 1018.2 |
| 20260508151025 | 53 | 323 | 7.0 | 17.0 | 0.00 | 0.00 | 0.00 | 79 | 1018.2 |
| 20260508150527 | 53 | 5 | 6.0 | 17.0 | 0.00 | 0.00 | 0.00 | 80 | 1018.2 |
| 20260508150025 | 53 | 5 | 9.0 | 17.0 | 0.00 | 0.00 | 0.00 | 80 | 1018.1 |
| 20260508145529 | 53 | 307 | 7.0 | 17.0 | 0.00 | 0.00 | 0.00 | 79 | 1018.1 |
| 20260508145024 | 53 | 298 | 4.0 | 15.0 | 0.00 | 0.00 | 0.00 | 79 | 1018.1 |
| 20260508144524 | 53 | 298 | 8.0 | 15.0 | 0.00 | 0.00 | 0.00 | 79 | 1018.2 |
| 20260508144027 | 53 | 309 | 5.0 | 12.0 | 0.00 | 0.00 | 0.00 | 79 | 1018.2 |
| 20260508135515 | 53 | 339 | 5.0 | 15.0 | 0.00 | 0.00 | 0.00 | 81 | 1018.2 |
| 20260508135018 | 53 | 308 | 5.0 | 15.0 | 0.00 | 0.00 | 0.00 | 81 | 1018.2 |
| 20260508134516 | 53 | 317 | 7.0 | 11.0 | 0.00 | 0.00 | 0.00 | 81 | 1018.3 |
| 20260508134014 | 53 | 355 | 1.0 | 11.0 | 0.00 | 0.00 | 0.00 | 82 | 1018.2 |
| 20260508133517 | 52 | 5 | 5.0 | 12.0 | 0.00 | 0.00 | 0.00 | 82 | 1018.3 |
| 20260508133013 | 52 | 311 | 4.0 | 12.0 | 0.00 | 0.00 | 0.00 | 83 | 1018.3 |
| 20260508132511 | 52 | 306 | 4.0 | 12.0 | 0.00 | 0.00 | 0.00 | 84 | 1018.4 |
| 20260508132111 | 52 | 300 | 2.0 | 11.0 | 0.00 | 0.00 | 0.00 | 84 | 1018.4 |
| 20260508131517 | 51 | 289 | 2.0 | 14.0 | 0.00 | 0.00 | 0.00 | 83 | 1018.4 |
| 20260508131011 | 52 | 292 | 8.0 | 14.0 | 0.00 | 0.00 | 0.00 | 84 | 1018.5 |
| 20260508130509 | 52 | 295 | 3.0 | 12.0 | 0.00 | 0.00 | 0.00 | 86 | 1018.4 |
| 20260508130009 | 51 | 5 | 5.0 | 12.0 | 0.00 | 0.00 | 0.00 | 86 | 1018.4 |
| 20260508125510 | 51 | 321 | 5.0 | 15.0 | 0.00 | 0.00 | 0.00 | 86 | 1018.3 |
| 20260508125008 | 51 | 19 | 7.0 | 15.0 | 0.00 | 0.00 | 0.00 | 87 | 1018.4 |
| 20260508124509 | 51 | 5 | 3.0 | 14.0 | 0.00 | 0.00 | 0.00 | 87 | 1018.4 |
| 20260508124008 | 51 | 298 | 7.0 | 14.0 | 0.00 | 0.00 | 0.00 | 87 | 1018.5 |
| 20260508123508 | 50 | 17 | 6.0 | 13.0 | 0.00 | 0.00 | 0.00 | 88 | 1018.5 |
| 20260508123009 | 50 | 317 | 3.0 | 13.0 | 0.00 | 0.00 | 0.00 | 88 | 1018.4 |
| 20260508122508 | 50 | 298 | 5.0 | 13.0 | 0.00 | 0.00 | 0.00 | 88 | 1018.4 |
| 20260508122008 | 50 | 305 | 4.0 | 13.0 | 0.00 | 0.00 | 0.00 | 88 | 1018.5 |
| 20260508121508 | 50 | 320 | 7.0 | 16.0 | 0.00 | 0.00 | 0.00 | 88 | 1018.4 |
| 20260508121007 | 50 | 11 | 7.0 | 16.0 | 0.00 | 0.00 | 0.00 | 88 | 1018.4 |
| 20260508120506 | 50 | 317 | 7.0 | 19.0 | 0.00 | 0.00 | 0.00 | 87 | 1018.4 |
| 20260508120006 | 50 | 312 | 7.0 | 19.0 | 0.00 | 0.00 | 0.00 | 86 | 1018.3 |
| 20260508115506 | 50 | 297 | 9.0 | 17.0 | 0.00 | 0.00 | 0.00 | 86 | 1018.3 |
| 20260508115005 | 51 | 277 | 9.0 | 17.0 | 0.00 | 0.00 | 0.00 | 85 | 1018.3 |
| 20260508114505 | 52 | 329 | 4.0 | 13.0 | 0.00 | 0.00 | 0.00 | 86 | 1018.2 |
| 20260508114007 | 52 | 321 | 4.0 | 15.0 | 0.00 | 0.00 | 0.00 | 86 | 1018.2 |
| 20260508113504 | 52 | 5 | 6.0 | 17.0 | 0.00 | 0.00 | 0.00 | 87 | 1018.1 |
| 20260508113003 | 51 | 337 | 7.0 | 17.0 | 0.00 | 0.00 | 0.00 | 88 | 1018.1 |
| 20260508112502 | 51 | 307 | 2.0 | 13.0 | 0.00 | 0.00 | 0.00 | 87 | 1018.1 |
| 20260508112100 | 51 | 304 | 5.0 | 14.0 | 0.00 | 0.00 | 0.00 | 88 | 1018.1 |
| 20260508111659 | 51 | 349 | 6.0 | 15.0 | 0.00 | 0.00 | 0.00 | 89 | 1018.1 |
| 20260508111102 | 51 | 332 | 6.0 | 15.0 | 0.00 | 0.00 | 0.00 | 89 | 1018.1 |
| 20260508110557 | 51 | 312 | 4.0 | 12.0 | 0.00 | 0.00 | 0.00 | 90 | 1018.1 |
| 20260508110058 | 51 | 9 | 5.0 | 11.0 | 0.00 | 0.00 | 0.00 | 91 | 1018.0 |
| 20260508105558 | 50 | 360 | 2.0 | 16.0 | 0.00 | 0.00 | 0.00 | 91 | 1018.0 |
| 20260508105055 | 50 | 350 | 10.0 | 16.0 | 0.00 | 0.00 | 0.00 | 91 | 1018.0 |
| 20260508104619 | 51 | 327 | 6.0 | 12.0 | 0.00 | 0.00 | 0.00 | 92 | 1018.0 |
| 20260508104054 | 50 | 331 | 5.0 | 10.0 | 0.00 | 0.00 | 0.00 | 93 | 1017.9 |
| 20260508103552 | 49 | 300 | 3.0 | 8.0 | 0.00 | 0.00 | 0.00 | 94 | 1017.9 |
| 20260508103050 | 49 | 355 | 3.0 | 9.0 | 0.00 | 0.00 | 0.00 | 94 | 1017.9 |
| 20260508102548 | 48 | 19 | 0.0 | 0.0 | 0.00 | 0.00 | 0.00 | 94 | 1017.9 |
| 20260508102048 | 48 | 350 | 0.0 | 0.0 | 0.00 | 0.00 | 0.00 | 94 | 1017.9 |
| 20260508101551 | 48 | 336 | 0.0 | 0.0 | 0.00 | 0.00 | 0.00 | 94 | 1018.0 |
| 20260508101048 | 48 | 277 | 0.0 | 0.0 | 0.00 | 0.00 | 0.00 | 94 | 1018.0 |
| 20260508100547 | 48 | 274 | 0.0 | 0.0 | 0.00 | 0.00 | 0.00 | 94 | 1018.0 |
| 20260508100048 | 48 | 305 | 0.0 | 0.0 | 0.00 | 0.00 | 0.00 | 94 | 1018.1 |
| 20260508095548 | 48 | 323 | 0.0 | 3.0 | 0.00 | 0.00 | 0.00 | 94 | 1018.0 |
| 20260508095047 | 48 | 355 | 0.0 | 11.0 | 0.00 | 0.00 | 0.00 | 95 | 1018.0 |
| 20260508094548 | 48 | 309 | 4.0 | 11.0 | 0.00 | 0.00 | 0.00 | 94 | 1017.9 |
| 20260508094045 | 48 | 291 | 4.0 | 11.0 | 0.00 | 0.00 | 0.00 | 94 | 1017.9 |
| 20260508093548 | 48 | 296 | 0.0 | 11.0 | 0.00 | 0.00 | 0.00 | 95 | 1017.9 |
| 20260508093045 | 48 | 338 | 4.0 | 11.0 | 0.00 | 0.00 | 0.00 | 95 | 1017.9 |
| 20260508092546 | 48 | 331 | 2.0 | 8.0 | 0.00 | 0.00 | 0.00 | 95 | 1017.8 |
| 20260508092043 | 48 | 296 | 0.0 | 11.0 | 0.00 | 0.00 | 0.00 | 95 | 1017.9 |
| 20260508091543 | 47 | 296 | 3.0 | 15.0 | 0.00 | 0.00 | 0.00 | 95 | 1017.9 |
| 20260508090543 | 47 | 296 | 6.0 | 13.0 | 0.00 | 0.00 | 0.00 | 95 | 1017.9 |
| 20260508090052 | 47 | 288 | 6.0 | 13.0 | 0.00 | 0.00 | 0.00 | 95 | 1017.8 |
| 20260508085540 | 47 | 302 | 8.0 | 13.0 | 0.00 | 0.00 | 0.00 | 95 | 1017.8 |
| 20260508085040 | 47 | 355 | 4.0 | 13.0 | 0.00 | 0.00 | 0.00 | 95 | 1017.7 |
| 20260508084539 | 48 | 310 | 5.0 | 11.0 | 0.00 | 0.00 | 0.00 | 95 | 1017.7 |
| 20260508084038 | 48 | 355 | 2.0 | 13.0 | 0.00 | 0.00 | 0.00 | 95 | 1017.6 |
| 20260508083537 | 48 | 5 | 7.0 | 13.0 | 0.00 | 0.00 | 0.00 | 95 | 1017.5 |
| 20260508083056 | 47 | 355 | 2.0 | 11.0 | 0.00 | 0.00 | 0.00 | 95 | 1017.5 |
| 20260508082539 | 47 | 327 | 6.0 | 13.0 | 0.00 | 0.00 | 0.00 | 95 | 1017.5 |
| 20260508082036 | 47 | 348 | 2.0 | 14.0 | 0.00 | 0.00 | 0.00 | 95 | 1017.4 |
| 20260508081547 | 47 | 304 | 6.0 | 14.0 | 0.00 | 0.00 | 0.00 | 95 | 1017.4 |
| 20260508081034 | 47 | 333 | 5.0 | 12.0 | 0.00 | 0.00 | 0.00 | 95 | 1017.4 |
| 20260508080534 | 47 | 293 | 7.0 | 12.0 | 0.00 | 0.00 | 0.00 | 95 | 1017.4 |
| 20260508080034 | 47 | 329 | 5.0 | 12.0 | 0.00 | 0.00 | 0.00 | 95 | 1017.4 |
| 20260508075533 | 47 | 342 | 7.0 | 12.0 | 0.00 | 0.00 | 0.00 | 95 | 1017.3 |